Regional Weather Roundup
Issued by NWS

Home | Current Version | Previous Version | Graphics & Text | Print | Product List | Glossary On
Versions: 1 2 3 4 5 6 7 8 9 10 11 12 13 14 15 16 17 18 19 20 21 22 23 24 25 26 27 28 29 30 31 32 33 34 35 36 37 38 39 40 41 42 43 44 45 46 47 48 49 50
000
ASUS43 KIND 111409
RWRIN

WEATHER ROUNDUP FOR INDIANA
NATIONAL WEATHER SERVICE INDIANAPOLIS IN
1000 AM EDT FRI JUL 11 2014

NOTE: "FAIR" INDICATES FEW OR NO CLOUDS BELOW 12,000 FEET WITH NO
SIGNIFICANT WEATHER AND/OR OBSTRUCTIONS TO VISIBILITY.

* - STATION DOES NOT REPORT WEATHER SUCH AS PRECIPITATION OR FOG.

+ - STATION NOT QUALITY CONTROLLED BY THE NATIONAL WEATHER SERVICE.
    USE DATA WITH CAUTION...ESPECIALLY DEWPOINT AND RELATIVE
    HUMIDITY OBSERVATIONS.

INZ001>003-010>013-019-020-111500-
NORTHWEST INDIANA

CITY           SKY/WX    TMP DP  RH WIND       PRES   REMARKS
GARY /AIRPORT/ MOSUNNY   72  55  56 S3        30.24R
KNOX *+        SUNNY     69  58  66 CALM      30.23S
LA PORTE +     SUNNY     68  57  66 CALM      30.25R
MICHIGAN CITY+ SUNNY     70  55  60 S5        30.24S
MONTICELLO +   SUNNY     69  58  68 CALM      30.23R
RENSSELAER +   SUNNY     70  61  73 CALM      30.24R
VALPARAISO     SUNNY     69  55  60 S3        30.24R

$$

LMZ046-743>745-111500-
SOUTHERN LAKE MICHIGAN

STATION/POSITION TIME  TEMP WIND        PRES
                       AIR  DIR/SP/G
                 (UTC) (F)  (DEG/KT/KT) (MB)
MICHIGAN CITY    1400   70  140/  6/  8   N/A

$$

INZ004-005-014>016-021>024-111500-
NORTH CENTRAL INDIANA

CITY           SKY/WX    TMP DP  RH WIND       PRES   REMARKS
ELKHART        SUNNY     70  57  64 CALM      30.25R
GOSHEN         SUNNY     71  60  68 CALM      30.24R
LOGANSPORT +   SUNNY     70  57  64 CALM      30.25R
PERU/GRISSOM   SUNNY     71  61  71 SE3       30.23R
ROCHESTER +    SUNNY     73  55  53 CALM      30.25R
SOUTH BEND     SUNNY     72  56  57 S5        30.24R
WARSAW +       SUNNY     70  61  73 CALM      30.24R

$$

INZ006>009-017-018-025>027-111500-
NORTHEAST INDIANA

CITY           SKY/WX    TMP DP  RH WIND       PRES   REMARKS
ANGOLA *+      SUNNY     72  63  73 SE5       30.24R
AUBURN +       SUNNY     70  57  64 E6        30.25R
FORT WAYNE     MOSUNNY   70  60  70 SE3       30.24R
HUNTINGTON +   SUNNY     69  58  69 CALM      30.23S

$$

INZ028-029-035-036-043>045-051>053-111500-
WEST CENTRAL INDIANA

CITY           SKY/WX    TMP DP  RH WIND       PRES   REMARKS
GREENCASTLE +  SUNNY     70  59  68 SE5       30.24S
LAFAYETTE      SUNNY     70  57  63 SE3       30.23R
TERRE HAUTE    SUNNY     72  60  66 SE6       30.22S

$$

INZ030>032-037>040-046>048-054>057-064-065-111500-
CENTRAL INDIANA

CITY           SKY/WX    TMP DP  RH WIND       PRES   REMARKS
ANDERSON       SUNNY     72  57  60 CALM      30.24S
CP ATTERBURY + SUNNY     72  55  56 E5        30.23S
INDIANAPOLIS   MOSUNNY   72  56  57 SE5       30.22R
-EAGLE CREEK   SUNNY     73  56  54 CALM      30.22R
KOKOMO *+      SUNNY     70  57  64 S3        30.24R
MARION +       SUNNY     70  57  62 CALM      30.24R
MT COMFORT *+  MOSUNNY   72  61  68 SE5       30.23S
SHELBYVILLE    MOSUNNY   72  59  63 E5        30.23R
ZIONSVILLE +   SUNNY     71  56  58 SE3       30.24R

$$

INZ033-034-041-042-049-050-058-059-111500-
EAST CENTRAL INDIANA

CITY           SKY/WX    TMP DP  RH WIND       PRES   REMARKS
MUNCIE         SUNNY     72  55  55 SE3       30.23F

$$

INZ060-061-067>069-081>083-085>088-111500-
SOUTHWEST INDIANA

CITY           SKY/WX    TMP DP  RH WIND       PRES   REMARKS
EVANSVILLE     SUNNY     74  61  63 E5        30.21S
HUNTINGBURG *+ MOSUNNY   73  61  64 SE6       30.22R
WASHINGTON +   PTSUNNY   72  62  70 SE5       30.21S

$$

INZ062-063-066-070>080-084-089>092-111500-
SOUTH CENTRAL AND SOUTHEAST INDIANA

CITY           SKY/WX    TMP DP  RH WIND       PRES   REMARKS
BEDFORD +      SUNNY     73  57  56 E3        30.23R
BLOOMINGTON    SUNNY     73  55  53 E7        30.23R

$$




USA.gov is the U.S. government's official web portal to all federal, state and local government web resources and services.